Airfield :
LOGIN :

Register | Disclaimer

   EN    FR    IT 

 










Legend :    VFR   Marginal VFR   IFR   Intensive IFR   Very Intensive IFR
Visi :
Ceiling :
>= 8 km
>= 3000ft
5 to 8 km
1000 to 3000 ft
1500m to 5 km
500 to 1000 ft
800 to 1500m
200 to 500 ft
< 800m
< 200 ft
Symbols :   Thunderstorms  Fog  Heavy snow  Heavy precipitations  Wind > 20 kt
SIGMETs :     Misc.  Thunderstorms  Icing  Turbulence  Mountain Waves  Volcanic Ashes






- Airport Elevation : 231 ft
- IATA code : WTN


EGXW - RAF Waddington

CURRENT METAR :
  • 180350Z AUTO 04003KT 9999 -RA BKN050/// BKN080/// 14/12 Q1016

EXPIRED METARs :
  • 180250Z AUTO 03004KT 9999 -RA OVC050/// 14/13 Q1016
  • 180150Z AUTO 04004KT 9999 OVC050/// 14/13 Q1016 RERA

TAF AMD TAF EGXW
Valid from the 17 at 14:00 until the 18 at 06:00 UTC


171432Z 1714/1806 01007KT 7000 HZ BKN013
BECMG 1714/1716 9999 NSW
BECMG 1715/1717 FEW020 BKN045



MET'MAP, your aeronautical weather chart ! - Copyright ORBIFLY December 2007 - Disclaimer

ORBIFLY MET'MAP TEAM :

Programming & Development : Alexandra Zaïnal
Concept & original design : Baudouin d'Aumeries
Assistance for programming : Marc-Olivier Méhu
Technical & hardware support : Manuel Goepfert

Contact : metmap@orbifly.com




SOURCES & CREDITS :

   NOAA